Litchfield, MN

4:52 PM CST on January 17, 2018 (GMT -0600)
Litchfield Municipal

Weather History for KLJF - October, 2012

Change the Weather History Date:

Wednesday, October 10, 2012

  Actual Average Record
Temperature  
Mean Temperature 38 °F -  
Max Temperature 51 °F 59 °F 81 °F (1960)
Min Temperature 26 °F 37 °F 21 °F (1970)
Degree Days  
Heating Degree Days 26    
Moisture  
Dew Point 25 °F    
Average Humidity 56    
Maximum Humidity 93    
Minimum Humidity 28    
Precipitation  
Precipitation 0.00 in - - ()
Sea Level Pressure  
Sea Level Pressure 30.00 in    
Wind  
Wind Speed 5 mph (WSW)    
Max Wind Speed 15 mph    
Max Gust Speed 21 mph    
Visibility 10 miles    
Events      
Averages and records for this station are not official NWS values.
T = Trace of Precipitation, MM = Missing Value Source: NWS Daily Summary

Daily Weather History Graph

Daily Weather History Graph

Search for Another Location

Airport or City:

Trip Planner

Search our weather history database for the weather conditions in past years. The results will help you decide how hot, cold, wet, or windy it might be!

Date:

Astronomy

Oct. 10, 2012 Rise Set
Actual Time 7:28 AM CDT 6:40 PM CDT
Civil Twilight 6:58 AM CDT 7:10 PM CDT
Nautical Twilight 6:24 AM CDT 7:44 PM CDT
Astronomical Twilight 5:50 AM CDT 8:18 PM CDT
Moon 1:51 AM CDT (10/10) 3:55 PM CDT (10/10)
Length of Visible Light 12h 11m
Length of Day
11h 12m
Waning Crescent, 27% of the Moon is Illuminated
Oct 10
Waning Crescent
Oct 15
New
Oct 21
First Quarter
Oct 29
Full
Nov 6
Last Quarter

Hourly Weather History & Observations

Time (CDT) Temp. Windchill Dew Point Humidity Pressure Visibility Wind Dir Wind Speed Gust Speed Precip Events Conditions
12:13 AM 33.8 °F 27.7 °F 24.8 °F 70% 30.01 in 10.0 mi WNW 6.9 mph - N/A   Clear
12:33 AM 33.8 °F 29.6 °F 24.8 °F 70% 30.01 in 10.0 mi WNW 4.6 mph - N/A   Clear
12:53 AM 32.0 °F 28.7 °F 23.0 °F 69% 30.01 in 10.0 mi West 3.5 mph - N/A   Clear
1:13 AM 32.0 °F 28.7 °F 23.0 °F 69% 30.01 in 10.0 mi West 3.5 mph - N/A   Mostly Cloudy
1:33 AM 33.8 °F 30.8 °F 24.8 °F 70% 30.01 in 10.0 mi WSW 3.5 mph - N/A   Overcast
1:53 AM 33.8 °F 29.6 °F 24.8 °F 70% 30.02 in 10.0 mi WNW 4.6 mph - N/A   Overcast
2:13 AM 33.8 °F 30.8 °F 24.8 °F 70% 30.02 in 10.0 mi West 3.5 mph - N/A   Overcast
2:33 AM 33.8 °F - 24.8 °F 70% 30.03 in 10.0 mi Calm Calm - N/A   Overcast
2:53 AM 30.2 °F 26.7 °F 21.2 °F 69% 30.03 in 10.0 mi West 3.5 mph - N/A   Unknown
3:13 AM 30.2 °F 24.3 °F 21.2 °F 69% 30.03 in 10.0 mi West 5.8 mph - N/A   Unknown
3:33 AM 30.2 °F 25.4 °F 24.8 °F 80% 30.02 in 10.0 mi West 4.6 mph - N/A   Clear
3:53 AM 30.2 °F 24.3 °F 26.6 °F 86% 30.02 in 10.0 mi West 5.8 mph - N/A   Clear
4:13 AM 30.2 °F 24.3 °F 26.6 °F 86% 30.03 in 10.0 mi West 5.8 mph - N/A   Clear
4:33 AM 30.2 °F 25.4 °F 26.6 °F 86% 30.03 in 10.0 mi West 4.6 mph - N/A   Clear
4:53 AM 30.2 °F 25.4 °F 26.6 °F 86% 30.04 in 10.0 mi West 4.6 mph - N/A   Clear
5:13 AM 28.4 °F 24.6 °F 26.6 °F 93% 30.04 in 10.0 mi West 3.5 mph - N/A   Clear
5:33 AM 28.4 °F 23.3 °F 24.8 °F 86% 30.05 in 10.0 mi West 4.6 mph - N/A   Clear
5:53 AM 28.4 °F 23.3 °F 24.8 °F 86% 30.05 in 10.0 mi West 4.6 mph - N/A   Clear
6:13 AM 28.4 °F 23.3 °F 24.8 °F 86% 30.05 in 10.0 mi West 4.6 mph - N/A   Clear
6:33 AM 28.4 °F 22.2 °F 26.6 °F 93% 30.05 in 10.0 mi West 5.8 mph - N/A   Clear
6:53 AM 28.4 °F 23.3 °F 26.6 °F 93% 30.06 in 10.0 mi West 4.6 mph - N/A   Clear
7:13 AM 28.4 °F 23.3 °F 26.6 °F 93% 30.07 in 10.0 mi West 4.6 mph - N/A   Clear
7:34 AM 26.6 °F 22.6 °F 24.8 °F 93% 30.08 in 10.0 mi WSW 3.5 mph - N/A   Clear
7:53 AM 28.4 °F 24.6 °F 26.6 °F 93% 30.08 in 10.0 mi WSW 3.5 mph - N/A   Clear
8:34 AM 30.2 °F 25.4 °F 28.4 °F 93% 30.08 in 10.0 mi WSW 4.6 mph - N/A   Clear
8:53 AM 35.6 °F 32.8 °F 33.8 °F 93% 30.09 in 10.0 mi WSW 3.5 mph - N/A   Clear
9:13 AM 33.8 °F 30.8 °F 30.2 °F 87% 30.09 in 10.0 mi WSW 3.5 mph - N/A   Clear
9:34 AM 37.4 °F 32.1 °F 32.0 °F 81% 30.09 in 10.0 mi WSW 6.9 mph - N/A   Clear
9:53 AM 39.2 °F 33.6 °F 30.2 °F 70% 30.09 in 10.0 mi West 8.1 mph - N/A   Clear
10:13 AM 42.8 °F 39.3 °F 30.2 °F 61% 30.09 in 10.0 mi West 5.8 mph - N/A   Clear
10:33 AM 42.8 °F 39.3 °F 28.4 °F 57% 30.09 in 10.0 mi WSW 5.8 mph - N/A   Clear
10:53 AM 42.8 °F 38.6 °F 28.4 °F 57% 30.10 in 10.0 mi WSW 6.9 mph - N/A   Clear
11:13 AM 44.6 °F 40.2 °F 30.2 °F 57% 30.10 in 10.0 mi WSW 8.1 mph - N/A   Clear
11:53 AM 48.2 °F - 28.4 °F 46% 30.09 in 10.0 mi West 9.2 mph - N/A   Clear
12:13 PM 48.2 °F - 28.4 °F 46% 30.08 in 10.0 mi WSW 8.1 mph 16.1 mph N/A   Clear
12:33 PM 50.0 °F - 26.6 °F 40% 30.08 in 7.0 mi West 8.1 mph - N/A   Clear
12:53 PM 50.0 °F - 26.6 °F 40% 30.07 in 10.0 mi West 11.5 mph 16.1 mph N/A   Clear
1:13 PM 51.8 °F - 26.6 °F 38% 30.06 in 10.0 mi West 12.7 mph 18.4 mph N/A   Scattered Clouds
1:34 PM 50.0 °F - 24.8 °F 37% 30.06 in 10.0 mi WSW 8.1 mph 20.7 mph N/A   Clear
1:53 PM 51.8 °F - 23.0 °F 33% 30.05 in 10.0 mi West 15.0 mph 19.6 mph N/A   Scattered Clouds
2:13 PM 51.8 °F - 23.0 °F 33% 30.04 in 10.0 mi West 9.2 mph 18.4 mph N/A   Scattered Clouds
2:34 PM 51.8 °F - 23.0 °F 33% 30.03 in 10.0 mi WSW 9.2 mph 18.4 mph N/A   Clear
2:53 PM 51.8 °F - 23.0 °F 33% 30.02 in 10.0 mi West 10.4 mph - N/A   Clear
3:13 PM 51.8 °F - 21.2 °F 30% 30.02 in 10.0 mi West 8.1 mph 16.1 mph N/A   Scattered Clouds
3:34 PM 51.8 °F - 21.2 °F 30% 30.01 in 10.0 mi West 6.9 mph - N/A   Scattered Clouds
3:53 PM 51.8 °F - 21.2 °F 30% 30.01 in 10.0 mi WNW 6.9 mph - N/A   Scattered Clouds
4:13 PM 51.8 °F - 21.2 °F 30% 29.99 in 10.0 mi West 6.9 mph - N/A   Clear
4:34 PM 51.8 °F - 21.2 °F 30% 29.98 in 10.0 mi West 5.8 mph - N/A   Clear
4:53 PM 51.8 °F - 19.4 °F 28% 29.97 in 10.0 mi WSW 5.8 mph - N/A   Mostly Cloudy
5:13 PM 51.8 °F - 19.4 °F 28% 29.97 in 10.0 mi West 3.5 mph - N/A   Overcast
5:33 PM 50.0 °F - 19.4 °F 30% 29.96 in 10.0 mi Calm Calm - N/A   Unknown
5:53 PM 50.0 °F - 21.2 °F 32% 29.95 in 10.0 mi Calm Calm - N/A   Mostly Cloudy
6:13 PM 50.0 °F - 21.2 °F 32% 29.95 in 10.0 mi Calm Calm - N/A   Mostly Cloudy
6:33 PM 48.2 °F - 21.2 °F 34% 29.94 in 10.0 mi Calm Calm - N/A   Unknown
6:53 PM 48.2 °F - 21.2 °F 34% 29.93 in 7.0 mi SE 3.5 mph - N/A   Mostly Cloudy
7:13 PM 46.4 °F 45.2 °F 23.0 °F 40% 29.92 in 10.0 mi SE 3.5 mph - N/A   Mostly Cloudy
7:33 PM 48.2 °F - 23.0 °F 37% 29.92 in 10.0 mi SSE 4.6 mph - N/A   Overcast
7:53 PM 48.2 °F - 21.2 °F 34% 29.91 in 10.0 mi SE 4.6 mph - N/A   Overcast
8:14 PM 48.2 °F - 23.0 °F 37% 29.90 in 10.0 mi SE 4.6 mph - N/A   Overcast
8:33 PM 48.2 °F - 23.0 °F 37% 29.90 in 10.0 mi SE 5.8 mph - N/A   Overcast
8:53 PM 48.2 °F - 23.0 °F 37% 29.88 in 10.0 mi SE 3.5 mph - N/A   Overcast
9:13 PM 48.2 °F - 23.0 °F 37% 29.87 in 10.0 mi SE 4.6 mph - N/A   Mostly Cloudy
9:33 PM 48.2 °F - 23.0 °F 37% 29.86 in 10.0 mi SSE 5.8 mph - N/A   Mostly Cloudy
9:53 PM 48.2 °F - 23.0 °F 37% 29.85 in 10.0 mi SSE 5.8 mph - N/A   Scattered Clouds
10:13 PM 50.0 °F - 23.0 °F 35% 29.84 in 10.0 mi South 4.6 mph - N/A   Scattered Clouds
10:53 PM 50.0 °F - 24.8 °F 37% 29.82 in 10.0 mi SSW 6.9 mph - N/A   Clear
11:13 PM 51.8 °F - 24.8 °F 35% 29.80 in 10.0 mi South 5.8 mph - N/A   Clear
11:33 PM 51.8 °F - 26.6 °F 38% 29.80 in 10.0 mi SSW 4.6 mph - N/A   Clear
11:53 PM 51.8 °F - 26.6 °F 38% 29.79 in 10.0 mi SSW 8.1 mph - N/A   Clear